Date,TemperatureHighF,TemperatureAvgF,TemperatureLowF,DewpointHighF,DewpointAvgF,DewpointLowF,HumidityHigh,HumidityAvg,HumidityLow,PressureMaxIn,PressureMinIn,WindSpeedMaxMPH,WindSpeedAvgMPH,GustSpeedMaxMPH,PrecipitationSumIn
2013-2-1,46,43,40,42,38,35,99,85,71,29.32,28.97,3,1,11,0.08
2013-2-2,40,38,35,37,32,30,87,79,67,29.80,29.32,2,1,11,0.00
2013-2-3,50,45,36,48,43,33,99,95,82,29.76,29.33,4,1,9,0.11
2013-2-4,50,45,37,49,41,36,99,84,72,29.43,29.14,4,3,11,0.17
2013-2-5,44,40,36,43,37,32,99,89,77,29.14,28.81,5,3,14,0.32
2013-2-6,43,41,40,41,35,31,95,79,69,29.71,29.01,4,3,13,0.02
2013-2-7,43,40,38,40,37,34,99,91,83,29.73,29.55,2,0,5,0.04
2013-2-8,43,41,38,42,40,37,99,96,90,29.75,29.64,2,1,5,0.02
2013-2-9,40,39,37,40,39,37,99,99,94,29.74,29.34,2,1,4,0.14
2013-2-10,40,39,38,40,39,38,99,99,99,29.34,28.81,2,1,5,0.24
2013-2-17,44,41,39,36,35,34,88,77,70,29.64,29.62,2,0,5,0.00
2013-2-18,45,40,37,37,36,34,94,84,70,29.68,29.64,3,1,8,0.00
2013-2-19,43,37,32,40,36,32,99,95,84,29.68,29.62,2,0,3,0.00
2013-2-20,40,37,34,39,33,26,99,87,72,29.82,29.68,2,1,5,0.01
2013-2-21,39,35,33,27,24,22,76,63,53,29.85,29.78,3,1,7,0.00
2013-2-22,37,35,33,28,24,22,72,64,59,29.80,29.76,2,0,7,0.00
2013-2-24,35,35,34,31,31,30,87,84,83,29.98,29.98,1,0,2,0.00
2013-2-25,44,39,34,38,35,30,90,84,77,30.10,29.97,2,1,6,0.00
2013-2-26,43,41,39,38,36,34,91,84,79,30.22,30.08,1,0,2,0.00
2013-2-27,43,39,36,38,35,33,98,86,75,30.22,30.14,1,0,3,0.00
2013-2-28,41,37,33,40,36,33,99,97,90,30.14,30.02,1,0,4,0.00